| time (UTC) | temp F | wind direction | speed MPH | gust MPH | rain 1hr in | rain 24hr in | rain mn in | humidity % | barometer mb |
| 20260507005216 | 77 | 145 | 4.0 | 10.0 | 0.00 | 0.00 | 0.00 | 63 | 1016.0 |
| 20260507004217 | 77 | 80 | 3.0 | 12.0 | 0.00 | 0.00 | 0.00 | 63 | 1015.9 |
| 20260507003217 | 78 | 91 | 3.0 | 11.0 | 0.00 | 0.00 | 0.00 | 63 | 1015.8 |
| 20260507002212 | 78 | 126 | 3.0 | 9.0 | 0.00 | 0.00 | 0.00 | 61 | 1015.7 |
| 20260507001648 | 78 | 155 | 3.0 | 9.0 | 0.00 | 0.00 | 0.00 | 61 | 1015.7 |
| 20260507000213 | 78 | 84 | 4.0 | 12.0 | 0.00 | 0.00 | 0.00 | 60 | 1015.6 |
| 20260506235210 | 79 | 159 | 4.0 | 11.0 | 0.00 | 0.00 | 0.00 | 60 | 1015.7 |
| 20260506234209 | 79 | 80 | 3.0 | 10.0 | 0.00 | 0.00 | 0.00 | 60 | 1015.8 |
| 20260506233209 | 80 | 158 | 3.0 | 7.0 | 0.00 | 0.00 | 0.00 | 59 | 1015.8 |
| 20260506232208 | 80 | 205 | 3.0 | 7.0 | 0.00 | 0.00 | 0.00 | 55 | 1015.9 |
| 20260506231209 | 80 | 115 | 2.0 | 7.0 | 0.00 | 0.00 | 0.00 | 54 | 1016.0 |
| 20260506230210 | 80 | 136 | 3.0 | 10.0 | 0.00 | 0.00 | 0.00 | 55 | 1016.1 |
| 20260506225204 | 80 | 178 | 2.0 | 7.0 | 0.00 | 0.00 | 0.00 | 54 | 1016.3 |
| 20260506224204 | 79 | 31 | 2.0 | 7.0 | 0.00 | 0.00 | 0.00 | 55 | 1016.4 |
| 20260506223657 | 79 | 108 | 2.0 | 7.0 | 0.00 | 0.00 | 0.00 | 55 | 1016.5 |
| 20260506222202 | 79 | 120 | 2.0 | 5.0 | 0.00 | 0.00 | 0.00 | 56 | 1016.5 |
| 20260506221203 | 78 | 93 | 3.0 | 7.0 | 0.00 | 0.00 | 0.00 | 56 | 1016.7 |
| 20260506220204 | 78 | 155 | 2.0 | 6.0 | 0.00 | 0.00 | 0.00 | 58 | 1016.9 |
| 20260506215203 | 78 | 109 | 2.0 | 6.0 | 0.00 | 0.00 | 0.00 | 59 | 1017.0 |
| 20260506214203 | 78 | 153 | 2.0 | 5.0 | 0.00 | 0.00 | 0.00 | 60 | 1017.2 |
| 20260506213200 | 77 | 45 | 2.0 | 6.0 | 0.00 | 0.00 | 0.00 | 60 | 1017.4 |
| 20260506212152 | 76 | 175 | 3.0 | 6.0 | 0.00 | 0.00 | 0.00 | 63 | 1017.5 |
| 20260506211148 | 76 | 104 | 2.0 | 6.0 | 0.00 | 0.00 | 0.00 | 60 | 1017.4 |
| 20260506210146 | 76 | 246 | 2.0 | 7.0 | 0.00 | 0.00 | 0.00 | 59 | 1017.5 |
| 20260506205146 | 75 | 180 | 2.0 | 5.0 | 0.00 | 0.00 | 0.00 | 61 | 1017.7 |
| 20260506204632 | 75 | 176 | 2.0 | 8.0 | 0.00 | 0.00 | 0.00 | 63 | 1017.8 |
| 20260506203142 | 74 | 97 | 2.0 | 5.0 | 0.00 | 0.00 | 0.00 | 62 | 1017.8 |
| 20260506202140 | 74 | 9 | 2.0 | 6.0 | 0.00 | 0.00 | 0.00 | 61 | 1018.0 |
| 20260506201622 | 74 | 195 | 2.0 | 10.0 | 0.00 | 0.00 | 0.00 | 61 | 1018.2 |
| 20260506200129 | 73 | 194 | 2.0 | 7.0 | 0.00 | 0.00 | 0.00 | 62 | 1018.3 |
| 20260506195611 | 73 | 234 | 3.0 | 7.0 | 0.00 | 0.00 | 0.00 | 63 | 1018.4 |
| 20260506194127 | 73 | 203 | 4.0 | 9.0 | 0.00 | 0.00 | 0.00 | 64 | 1018.6 |
| 20260506193124 | 72 | 101 | 2.0 | 7.0 | 0.00 | 0.00 | 0.00 | 64 | 1018.5 |
| 20260506192124 | 72 | 194 | 2.0 | 9.0 | 0.00 | 0.00 | 0.00 | 65 | 1018.6 |
| 20260506191121 | 72 | 169 | 2.0 | 6.0 | 0.00 | 0.00 | 0.00 | 65 | 1018.9 |
| 20260506190557 | 71 | 228 | 2.0 | 6.0 | 0.00 | 0.00 | 0.00 | 67 | 1019.0 |
| 20260506185117 | 71 | 236 | 1.0 | 5.0 | 0.00 | 0.00 | 0.00 | 67 | 1019.0 |
| 20260506184116 | 70 | 216 | 3.0 | 8.0 | 0.00 | 0.00 | 0.00 | 67 | 1019.1 |
| 20260506184035 | 70 | 166 | 1.0 | 6.0 | 0.00 | 0.00 | 0.00 | 68 | 1019.1 |
| 20260506182110 | 69 | 230 | 2.0 | 6.0 | 0.00 | 0.00 | 0.00 | 69 | 1019.2 |
| 20260506181110 | 68 | 255 | 2.0 | 6.0 | 0.00 | 0.00 | 0.00 | 70 | 1019.0 |
| 20260506180110 | 67 | 226 | 2.0 | 6.0 | 0.00 | 0.00 | 0.00 | 73 | 1019.1 |
| 20260506175603 | 66 | 56 | 1.0 | 3.0 | 0.00 | 0.00 | 0.00 | 75 | 1019.1 |
| 20260506174553 | 65 | 11 | 1.0 | 4.0 | 0.00 | 0.00 | 0.00 | 76 | 1019.2 |
| 20260506173552 | 65 | 303 | 1.0 | 5.0 | 0.00 | 0.00 | 0.00 | 77 | 1019.2 |
| 20260506172107 | 65 | 318 | 2.0 | 5.0 | 0.00 | 0.00 | 0.00 | 77 | 1019.3 |
| 20260506171539 | 64 | 202 | 2.0 | 5.0 | 0.00 | 0.00 | 0.00 | 78 | 1019.3 |
| 20260506170056 | 63 | 279 | 1.0 | 4.0 | 0.00 | 0.00 | 0.00 | 81 | 1019.3 |
| 20260506165056 | 62 | 272 | 1.0 | 4.0 | 0.00 | 0.00 | 0.00 | 82 | 1019.2 |
| 20260506164044 | 61 | 276 | 1.0 | 4.0 | 0.00 | 0.00 | 0.00 | 82 | 1019.4 |
| 20260506163032 | 61 | 323 | 2.0 | 4.0 | 0.00 | 0.00 | 0.00 | 82 | 1019.4 |
| 20260506162032 | 60 | 286 | 2.0 | 4.0 | 0.00 | 0.00 | 0.00 | 84 | 1019.5 |
| 20260506161958 | 60 | 166 | 1.0 | 3.0 | 0.00 | 0.00 | 0.00 | 84 | 1019.4 |
| 20260506160500 | 59 | 249 | 1.0 | 4.0 | 0.00 | 0.00 | 0.00 | 86 | 1019.4 |
| 20260506155024 | 58 | 336 | 1.0 | 4.0 | 0.00 | 0.00 | 0.00 | 86 | 1019.3 |
| 20260506154017 | 58 | 295 | 0.0 | 3.0 | 0.00 | 0.00 | 0.00 | 87 | 1019.3 |
| 20260506153013 | 58 | 272 | 1.0 | 3.0 | 0.00 | 0.00 | 0.00 | 87 | 1019.3 |
| 20260506152010 | 57 | 273 | 0.0 | 2.0 | 0.00 | 0.00 | 0.00 | 88 | 1019.4 |
| 20260506151010 | 57 | 202 | 0.0 | 0.0 | 0.00 | 0.00 | 0.00 | 89 | 1019.4 |
| 20260506150458 | 56 | 202 | 0.0 | 0.0 | 0.00 | 0.00 | 0.00 | 90 | 1019.3 |
| 20260506145010 | 56 | 202 | 0.0 | 2.0 | 0.00 | 0.00 | 0.00 | 90 | 1019.3 |
| 20260506144004 | 56 | 206 | 0.0 | 2.0 | 0.00 | 0.00 | 0.00 | 91 | 1019.2 |
| 20260506143428 | 56 | 182 | 0.0 | 2.0 | 0.00 | 0.00 | 0.00 | 91 | 1019.2 |
| 20260506141938 | 56 | 116 | 0.0 | 0.0 | 0.00 | 0.00 | 0.00 | 91 | 1019.0 |
| 20260506140937 | 55 | 116 | 0.0 | 2.0 | 0.00 | 0.00 | 0.00 | 92 | 1018.9 |
| 20260506135930 | 55 | 161 | 0.0 | 2.0 | 0.00 | 0.00 | 0.00 | 91 | 1018.9 |
| 20260506134922 | 55 | 165 | 0.0 | 2.0 | 0.00 | 0.00 | 0.00 | 92 | 1018.9 |
| 20260506133912 | 55 | 168 | 0.0 | 2.0 | 0.00 | 0.00 | 0.00 | 92 | 1018.9 |
| 20260506133349 | 55 | 159 | 0.0 | 2.0 | 0.00 | 0.00 | 0.00 | 92 | 1018.9 |
| 20260506132338 | 55 | 123 | 0.0 | 1.0 | 0.00 | 0.00 | 0.00 | 92 | 1018.7 |
| 20260506131340 | 55 | 157 | 0.0 | 1.0 | 0.00 | 0.00 | 0.00 | 92 | 1018.5 |
| 20260506125852 | 55 | 151 | 0.0 | 1.0 | 0.00 | 0.00 | 0.00 | 92 | 1018.4 |
| 20260506124846 | 55 | 141 | 0.0 | 0.0 | 0.00 | 0.00 | 0.00 | 91 | 1018.3 |
| 20260506123814 | 55 | 141 | 0.0 | 0.0 | 0.00 | 0.00 | 0.00 | 91 | 1018.3 |
| 20260506122806 | 56 | 141 | 0.0 | 0.0 | 0.00 | 0.00 | 0.00 | 91 | 1018.4 |
| 20260506122233 | 55 | 141 | 0.0 | 0.0 | 0.00 | 0.00 | 0.00 | 91 | 1018.3 |
| 20260506120747 | 56 | 141 | 0.0 | 0.0 | 0.00 | 0.00 | 0.00 | 91 | 1018.2 |
| 20260506115743 | 56 | 130 | 0.0 | 0.0 | 0.00 | 0.00 | 0.00 | 91 | 1018.2 |
| 20260506114733 | 56 | 130 | 0.0 | 0.0 | 0.00 | 0.00 | 0.00 | 90 | 1018.1 |
| 20260506114200 | 56 | 130 | 0.0 | 0.0 | 0.00 | 0.00 | 0.00 | 91 | 1018.1 |
| 20260506112720 | 56 | 154 | 0.0 | 0.0 | 0.00 | 0.00 | 0.00 | 91 | 1018.0 |
| 20260506111654 | 56 | 143 | 0.0 | 1.0 | 0.00 | 0.00 | 0.00 | 90 | 1018.0 |
| 20260506110646 | 56 | 143 | 0.0 | 0.0 | 0.00 | 0.00 | 0.00 | 91 | 1017.9 |
| 20260506105614 | 56 | 143 | 0.0 | 0.0 | 0.00 | 0.00 | 0.00 | 90 | 1017.9 |
| 20260506104615 | 56 | 143 | 0.0 | 1.0 | 0.00 | 0.00 | 0.00 | 90 | 1017.8 |
| 20260506103610 | 56 | 149 | 0.0 | 1.0 | 0.00 | 0.00 | 0.00 | 90 | 1017.7 |
| 20260506102610 | 56 | 154 | 0.0 | 0.0 | 0.00 | 0.00 | 0.00 | 90 | 1017.7 |
| 20260506101610 | 56 | 154 | 0.0 | 0.0 | 0.00 | 0.00 | 0.00 | 90 | 1017.7 |
| 20260506100601 | 56 | 154 | 0.0 | 0.0 | 0.00 | 0.00 | 0.00 | 90 | 1017.6 |
| 20260506100031 | 56 | 154 | 0.0 | 0.0 | 0.00 | 0.00 | 0.00 | 90 | 1017.5 |
| 20260506094522 | 56 | 154 | 0.0 | 0.0 | 0.00 | 0.00 | 0.00 | 89 | 1017.4 |
| 20260506093511 | 56 | 191 | 0.0 | 2.0 | 0.00 | 0.00 | 0.00 | 89 | 1017.4 |
| 20260506092510 | 56 | 191 | 0.0 | 1.0 | 0.00 | 0.00 | 0.00 | 89 | 1017.5 |
| 20260506091944 | 56 | 191 | 0.0 | 2.0 | 0.00 | 0.00 | 0.00 | 89 | 1017.6 |
| 20260506090445 | 56 | 213 | 0.0 | 2.0 | 0.00 | 0.00 | 0.00 | 88 | 1017.6 |
| 20260506085438 | 56 | 227 | 0.0 | 2.0 | 0.00 | 0.00 | 0.00 | 88 | 1017.6 |
| 20260506084923 | 56 | 239 | 0.0 | 1.0 | 0.00 | 0.00 | 0.00 | 88 | 1017.6 |
| 20260506083438 | 56 | 159 | 0.0 | 2.0 | 0.00 | 0.00 | 0.00 | 87 | 1017.6 |
| 20260506082920 | 56 | 187 | 0.0 | 2.0 | 0.00 | 0.00 | 0.00 | 87 | 1017.6 |
| 20260506081438 | 56 | 138 | 0.0 | 2.0 | 0.00 | 0.00 | 0.00 | 86 | 1017.5 |
| 20260506080912 | 56 | 119 | 1.0 | 4.0 | 0.00 | 0.00 | 0.00 | 86 | 1017.5 |
| 20260506072420 | 57 | 111 | 1.0 | 4.0 | 0.00 | 0.00 | 0.00 | 86 | 1017.1 |
| 20260506071419 | 57 | 131 | 1.0 | 4.0 | 0.00 | 0.00 | 0.00 | 85 | 1017.0 |
| 20260506070926 | 57 | 134 | 2.0 | 5.0 | 0.00 | 0.00 | 0.00 | 85 | 1016.9 |
| 20260506070815 | 57 | 122 | 2.0 | 5.0 | 0.00 | 0.00 | 0.00 | 85 | 1016.8 |
| 20260506062418 | 58 | 131 | 1.0 | 4.0 | 0.00 | 0.00 | 0.00 | 83 | 1016.5 |
| 20260506061417 | 58 | 156 | 1.0 | 4.0 | 0.00 | 0.00 | 0.00 | 83 | 1016.5 |
| 20260506060417 | 58 | 190 | 1.0 | 7.0 | 0.00 | 0.00 | 0.00 | 82 | 1016.4 |
| 20260506051405 | 59 | 145 | 0.0 | 2.0 | 0.00 | 0.01 | 0.00 | 82 | 1016.2 |
| 20260506050400 | 60 | 118 | 1.0 | 3.0 | 0.00 | 0.04 | 0.00 | 82 | 1016.1 |
| 20260506044348 | 60 | 119 | 0.0 | 2.0 | 0.00 | 0.07 | 0.00 | 81 | 1015.8 |
| 20260506043347 | 60 | 115 | 1.0 | 3.0 | 0.00 | 0.07 | 0.00 | 81 | 1015.6 |
| 20260506042341 | 60 | 149 | 0.0 | 1.0 | 0.00 | 0.07 | 0.00 | 81 | 1015.4 |
| 20260506041805 | 60 | 132 | 0.0 | 3.0 | 0.00 | 0.07 | 0.00 | 80 | 1015.3 |
| 20260506040318 | 60 | 148 | 0.0 | 2.0 | 0.00 | 0.07 | 0.00 | 80 | 1015.1 |
| 20260506035306 | 60 | 122 | 1.0 | 3.0 | 0.00 | 0.07 | 0.00 | 80 | 1015.0 |
| 20260506034251 | 60 | 115 | 1.0 | 4.0 | 0.00 | 0.07 | 0.00 | 79 | 1014.9 |
| 20260506033236 | 61 | 105 | 0.0 | 3.0 | 0.00 | 0.07 | 0.00 | 79 | 1014.7 |
| 20260506032228 | 61 | 105 | 2.0 | 5.0 | 0.00 | 0.07 | 0.00 | 79 | 1014.5 |
| 20260506031215 | 61 | 111 | 1.0 | 3.0 | 0.00 | 0.07 | 0.00 | 78 | 1014.2 |
| 20260506030638 | 62 | 171 | 1.0 | 3.0 | 0.00 | 0.07 | 0.00 | 78 | 1014.1 |
| 20260506025158 | 62 | 213 | 1.0 | 4.0 | 0.00 | 0.07 | 0.00 | 77 | 1014.0 |
| 20260506024154 | 62 | 173 | 2.0 | 5.0 | 0.00 | 0.07 | 0.00 | 76 | 1014.1 |
| 20260506023154 | 62 | 226 | 1.0 | 5.0 | 0.00 | 0.07 | 0.00 | 75 | 1014.0 |
| 20260506022629 | 63 | 209 | 0.0 | 2.0 | 0.00 | 0.07 | 0.00 | 76 | 1013.9 |
| 20260506021144 | 63 | 188 | 3.0 | 10.0 | 0.00 | 0.07 | 0.00 | 75 | 1013.8 |
| 20260506020142 | 63 | 164 | 3.0 | 9.0 | 0.00 | 0.07 | 0.00 | 74 | 1013.6 |
| 20260506015617 | 64 | 192 | 3.0 | 7.0 | 0.00 | 0.07 | 0.00 | 74 | 1013.5 |
| 20260506014138 | 64 | 210 | 2.0 | 7.0 | 0.00 | 0.07 | 0.00 | 73 | 1013.5 |
| 20260506013137 | 65 | 229 | 2.0 | 6.0 | 0.00 | 0.07 | 0.00 | 72 | 1013.4 |
| 20260506012138 | 66 | 268 | 2.0 | 6.0 | 0.00 | 0.07 | 0.00 | 73 | 1013.4 |
| 20260506011134 | 66 | 304 | 3.0 | 9.0 | 0.00 | 0.07 | 0.00 | 72 | 1013.4 |